| time (UTC) | temp F | wind direction | speed MPH | gust MPH | rain 1hr in | rain 24hr in | rain mn in | humidity % | barometer mb |
| 20260505124831 | 43 | 105 | 1.0 | 4.0 | 0.00 | 0.01 | 0.01 | 82 | 1013.5 |
| 20260505124329 | 43 | 113 | 1.0 | 3.0 | 0.00 | 0.01 | 0.01 | 81 | 1013.4 |
| 20260505123830 | 43 | 124 | 1.0 | 3.0 | 0.00 | 0.01 | 0.01 | 81 | 1013.4 |
| 20260505123332 | 43 | 106 | 1.0 | 3.0 | 0.00 | 0.01 | 0.01 | 80 | 1013.4 |
| 20260505123050 | 43 | 111 | 1.0 | 3.0 | 0.00 | 0.01 | 0.01 | 80 | 1013.1 |
| 20260505122328 | 43 | 90 | 1.0 | 5.0 | 0.00 | 0.01 | 0.01 | 79 | 1013.1 |
| 20260505121831 | 43 | 90 | 2.0 | 6.0 | 0.00 | 0.01 | 0.01 | 79 | 1012.8 |
| 20260505121328 | 44 | 196 | 2.0 | 6.0 | 0.00 | 0.01 | 0.01 | 78 | 1012.7 |
| 20260505120825 | 44 | 117 | 1.0 | 6.0 | 0.00 | 0.01 | 0.01 | 78 | 1012.5 |
| 20260505120327 | 44 | 71 | 1.0 | 6.0 | 0.00 | 0.01 | 0.01 | 77 | 1012.4 |
| 20260505115826 | 44 | 127 | 1.0 | 5.0 | 0.00 | 0.01 | 0.01 | 77 | 1012.3 |
| 20260505115551 | 44 | 118 | 1.0 | 6.0 | 0.00 | 0.01 | 0.01 | 76 | 1012.2 |
| 20260505114823 | 44 | 121 | 2.0 | 6.0 | 0.00 | 0.01 | 0.01 | 75 | 1012.2 |
| 20260505114544 | 44 | 99 | 2.0 | 6.0 | 0.00 | 0.01 | 0.01 | 75 | 1012.1 |
| 20260505113824 | 45 | 147 | 2.0 | 6.0 | 0.00 | 0.01 | 0.01 | 74 | 1012.1 |
| 20260505113802 | 45 | 94 | 2.0 | 7.0 | 0.00 | 0.01 | 0.01 | 74 | 1012.1 |
| 20260505113424 | 45 | 94 | 2.0 | 7.0 | 0.00 | 0.01 | 0.01 | 74 | 1012.1 |
| 20260505112540 | 45 | 78 | 2.0 | 7.0 | 0.00 | 0.01 | 0.01 | 74 | 1012.1 |
| 20260505111819 | 46 | 173 | 2.0 | 7.0 | 0.00 | 0.01 | 0.01 | 74 | 1011.9 |
| 20260505111544 | 46 | 227 | 2.0 | 6.0 | 0.00 | 0.01 | 0.01 | 75 | 1011.9 |
| 20260505110819 | 46 | 226 | 1.0 | 4.0 | 0.00 | 0.01 | 0.01 | 76 | 1011.9 |
| 20260505110319 | 46 | 142 | 2.0 | 6.0 | 0.00 | 0.01 | 0.01 | 78 | 1012.1 |
| 20260505102041 | 46 | 207 | 2.0 | 9.0 | 0.00 | 0.01 | 0.01 | 82 | 1012.2 |
| 20260505101314 | 45 | 223 | 1.0 | 5.0 | 0.00 | 0.01 | 0.01 | 83 | 1012.2 |
| 20260505100816 | 45 | 194 | 1.0 | 7.0 | 0.00 | 0.01 | 0.01 | 84 | 1012.3 |
| 20260505100315 | 45 | 196 | 1.0 | 7.0 | 0.00 | 0.01 | 0.01 | 84 | 1012.3 |
| 20260505095816 | 45 | 133 | 1.0 | 4.0 | 0.00 | 0.01 | 0.01 | 85 | 1012.2 |
| 20260505095313 | 45 | 126 | 1.0 | 4.0 | 0.00 | 0.01 | 0.01 | 86 | 1012.3 |
| 20260505094810 | 44 | 201 | 0.0 | 2.0 | 0.00 | 0.01 | 0.01 | 87 | 1012.3 |
| 20260505094309 | 44 | 201 | 0.0 | 2.0 | 0.00 | 0.01 | 0.01 | 87 | 1012.3 |
| 20260505093809 | 44 | 207 | 0.0 | 0.0 | 0.00 | 0.01 | 0.01 | 86 | 1012.4 |
| 20260505093309 | 45 | 207 | 0.0 | 0.0 | 0.00 | 0.01 | 0.01 | 86 | 1012.3 |
| 20260505092809 | 45 | 207 | 0.0 | 0.0 | 0.00 | 0.01 | 0.01 | 86 | 1012.3 |
| 20260505092308 | 45 | 207 | 0.0 | 0.0 | 0.00 | 0.01 | 0.01 | 85 | 1012.3 |
| 20260505091806 | 45 | 207 | 0.0 | 0.0 | 0.00 | 0.01 | 0.01 | 85 | 1012.2 |
| 20260505091305 | 46 | 207 | 0.0 | 0.0 | 0.00 | 0.01 | 0.01 | 85 | 1012.3 |
| 20260505090804 | 46 | 207 | 0.0 | 0.0 | 0.00 | 0.01 | 0.01 | 85 | 1012.4 |
| 20260505090303 | 46 | 207 | 0.0 | 0.0 | 0.00 | 0.01 | 0.01 | 84 | 1012.4 |
| 20260505085804 | 46 | 207 | 0.0 | 0.0 | 0.00 | 0.01 | 0.01 | 84 | 1012.4 |
| 20260505085301 | 46 | 207 | 0.0 | 0.0 | 0.00 | 0.01 | 0.01 | 84 | 1012.3 |
| 20260505084803 | 46 | 207 | 0.0 | 0.0 | 0.00 | 0.01 | 0.01 | 84 | 1012.3 |
| 20260505084301 | 46 | 207 | 0.0 | 0.0 | 0.00 | 0.01 | 0.01 | 84 | 1012.5 |
| 20260505083800 | 46 | 207 | 0.0 | 0.0 | 0.00 | 0.01 | 0.01 | 86 | 1012.5 |
| 20260505083301 | 46 | 207 | 0.0 | 0.0 | 0.00 | 0.01 | 0.01 | 86 | 1012.7 |
| 20260505082755 | 46 | 207 | 0.0 | 2.0 | 0.00 | 0.01 | 0.01 | 86 | 1012.7 |
| 20260505082510 | 46 | 207 | 0.0 | 2.0 | 0.00 | 0.01 | 0.01 | 87 | 1012.8 |
| 20260505081744 | 46 | 207 | 0.0 | 1.0 | 0.00 | 0.01 | 0.01 | 88 | 1012.8 |
| 20260505081504 | 46 | 207 | 0.0 | 2.0 | 0.00 | 0.01 | 0.01 | 88 | 1012.9 |
| 20260505080731 | 46 | 207 | 0.0 | 2.0 | 0.00 | 0.01 | 0.01 | 88 | 1012.8 |
| 20260505080225 | 46 | 207 | 0.0 | 1.0 | 0.00 | 0.01 | 0.01 | 88 | 1012.8 |
| 20260505075949 | 46 | 207 | 0.0 | 1.0 | 0.00 | 0.01 | 0.01 | 88 | 1012.8 |
| 20260505075213 | 46 | 207 | 0.0 | 1.0 | 0.00 | 0.01 | 0.01 | 88 | 1012.9 |
| 20260505074707 | 46 | 207 | 0.0 | 1.0 | 0.00 | 0.01 | 0.01 | 89 | 1012.9 |
| 20260505074200 | 46 | 207 | 0.0 | 1.0 | 0.00 | 0.01 | 0.01 | 89 | 1013.0 |
| 20260505074148 | 46 | 207 | 0.0 | 0.0 | 0.00 | 0.01 | 0.01 | 89 | 1012.9 |
| 20260505073411 | 46 | 207 | 0.0 | 0.0 | 0.00 | 0.01 | 0.01 | 89 | 1013.0 |
| 20260505072644 | 46 | 207 | 0.0 | 0.0 | 0.00 | 0.01 | 0.01 | 88 | 1013.0 |
| 20260505072404 | 46 | 207 | 0.0 | 0.0 | 0.00 | 0.01 | 0.01 | 88 | 1013.0 |
| 20260505071633 | 46 | 207 | 0.0 | 0.0 | 0.01 | 0.01 | 0.01 | 88 | 1012.9 |
| 20260505071125 | 46 | 207 | 0.0 | 0.0 | 0.01 | 0.01 | 0.01 | 87 | 1013.0 |
| 20260505070618 | 46 | 207 | 0.0 | 1.0 | 0.01 | 0.01 | 0.01 | 87 | 1012.9 |
| 20260505070113 | 46 | 207 | 0.0 | 1.0 | 0.01 | 0.01 | 0.01 | 86 | 1013.0 |
| 20260505065607 | 47 | 207 | 0.0 | 0.0 | 0.01 | 0.01 | 0.01 | 86 | 1012.9 |
| 20260505065101 | 47 | 207 | 0.0 | 0.0 | 0.01 | 0.01 | 0.01 | 85 | 1012.9 |
| 20260505064555 | 47 | 207 | 0.0 | 0.0 | 0.01 | 0.01 | 0.01 | 85 | 1012.8 |
| 20260505064049 | 47 | 207 | 0.0 | 0.0 | 0.01 | 0.01 | 0.01 | 84 | 1012.8 |
| 20260505063543 | 48 | 207 | 0.0 | 0.0 | 0.01 | 0.01 | 0.01 | 84 | 1012.9 |
| 20260505063037 | 48 | 207 | 0.0 | 0.0 | 0.01 | 0.01 | 0.01 | 83 | 1013.1 |
| 20260505062532 | 48 | 207 | 0.0 | 0.0 | 0.01 | 0.01 | 0.01 | 81 | 1013.0 |
| 20260505062025 | 49 | 207 | 0.0 | 0.0 | 0.01 | 0.01 | 0.01 | 80 | 1013.0 |
| 20260505061518 | 49 | 207 | 0.0 | 0.0 | 0.00 | 0.00 | 0.00 | 78 | 1013.0 |
| 20260505061018 | 49 | 207 | 0.0 | 1.0 | 0.00 | 0.00 | 0.00 | 76 | 1013.3 |
| 20260505060515 | 50 | 207 | 0.0 | 2.0 | 0.00 | 0.00 | 0.00 | 75 | 1013.3 |
| 20260505060015 | 50 | 207 | 0.0 | 2.0 | 0.00 | 0.00 | 0.00 | 75 | 1013.3 |
| 20260505055515 | 50 | 207 | 0.0 | 1.0 | 0.00 | 0.00 | 0.00 | 73 | 1013.3 |
| 20260505055013 | 50 | 207 | 0.0 | 2.0 | 0.00 | 0.00 | 0.00 | 72 | 1013.4 |
| 20260505054512 | 51 | 205 | 1.0 | 3.0 | 0.00 | 0.00 | 0.00 | 70 | 1013.3 |
| 20260505054011 | 51 | 205 | 1.0 | 3.0 | 0.00 | 0.00 | 0.00 | 68 | 1013.4 |
| 20260505053512 | 51 | 204 | 0.0 | 3.0 | 0.00 | 0.00 | 0.00 | 67 | 1013.3 |
| 20260505053013 | 51 | 205 | 1.0 | 4.0 | 0.00 | 0.00 | 0.00 | 67 | 1013.1 |
| 20260505052512 | 51 | 209 | 1.0 | 4.0 | 0.00 | 0.00 | 0.00 | 67 | 1013.1 |
| 20260505052011 | 51 | 225 | 1.0 | 3.0 | 0.00 | 0.00 | 0.00 | 67 | 1013.0 |
| 20260505051512 | 51 | 219 | 1.0 | 4.0 | 0.00 | 0.00 | 0.00 | 67 | 1013.0 |
| 20260505051012 | 50 | 219 | 1.0 | 4.0 | 0.00 | 0.00 | 0.00 | 68 | 1013.0 |
| 20260505050509 | 50 | 226 | 0.0 | 0.0 | 0.00 | 0.00 | 0.00 | 68 | 1013.0 |
| 20260505041003 | 50 | 226 | 0.0 | 0.0 | 0.00 | 0.00 | 0.00 | 66 | 1012.7 |
| 20260505040500 | 50 | 226 | 0.0 | 0.0 | 0.00 | 0.00 | 0.00 | 66 | 1012.5 |
| 20260505040007 | 50 | 226 | 0.0 | 0.0 | 0.00 | 0.00 | 0.00 | 65 | 1012.7 |
| 20260505035503 | 50 | 226 | 0.0 | 0.0 | 0.00 | 0.00 | 0.00 | 65 | 1012.5 |
| 20260505035227 | 50 | 226 | 0.0 | 1.0 | 0.00 | 0.00 | 0.00 | 65 | 1012.5 |
| 20260505034501 | 51 | 226 | 0.0 | 1.0 | 0.00 | 0.00 | 0.00 | 64 | 1012.4 |
| 20260505034227 | 51 | 226 | 0.0 | 0.0 | 0.00 | 0.00 | 0.00 | 63 | 1012.4 |
| 20260505033500 | 51 | 226 | 0.0 | 0.0 | 0.00 | 0.00 | 0.00 | 64 | 1012.3 |
| 20260505033002 | 51 | 226 | 0.0 | 2.0 | 0.00 | 0.00 | 0.00 | 63 | 1012.3 |
| 20260505032501 | 51 | 226 | 0.0 | 2.0 | 0.00 | 0.00 | 0.00 | 63 | 1012.1 |
| 20260505032002 | 51 | 226 | 0.0 | 0.0 | 0.00 | 0.00 | 0.00 | 63 | 1012.1 |
| 20260505031723 | 51 | 226 | 0.0 | 0.0 | 0.00 | 0.00 | 0.00 | 63 | 1011.9 |
| 20260505031003 | 51 | 226 | 0.0 | 0.0 | 0.00 | 0.00 | 0.00 | 62 | 1011.9 |
| 20260505030502 | 52 | 226 | 0.0 | 0.0 | 0.00 | 0.00 | 0.00 | 62 | 1011.8 |
| 20260505030001 | 52 | 226 | 0.0 | 0.0 | 0.00 | 0.00 | 0.00 | 61 | 1011.6 |
| 20260505025500 | 52 | 226 | 0.0 | 3.0 | 0.00 | 0.00 | 0.00 | 61 | 1011.6 |
| 20260505025001 | 52 | 226 | 1.0 | 3.0 | 0.00 | 0.00 | 0.00 | 60 | 1011.7 |
| 20260505024458 | 52 | 226 | 1.0 | 4.0 | 0.00 | 0.00 | 0.00 | 60 | 1011.7 |
| 20260505023955 | 52 | 227 | 1.0 | 4.0 | 0.00 | 0.00 | 0.00 | 61 | 1011.8 |
| 20260505023711 | 53 | 231 | 1.0 | 4.0 | 0.00 | 0.00 | 0.00 | 61 | 1011.8 |
| 20260505022953 | 53 | 198 | 1.0 | 5.0 | 0.00 | 0.00 | 0.00 | 61 | 1011.9 |
| 20260505022447 | 53 | 135 | 1.0 | 5.0 | 0.00 | 0.00 | 0.00 | 60 | 1011.8 |
| 20260505022209 | 53 | 211 | 0.0 | 2.0 | 0.00 | 0.00 | 0.00 | 61 | 1011.8 |
| 20260505021443 | 53 | 214 | 0.0 | 3.0 | 0.00 | 0.00 | 0.00 | 61 | 1011.7 |
| 20260505021216 | 53 | 214 | 0.0 | 5.0 | 0.00 | 0.00 | 0.00 | 61 | 1011.6 |
| 20260505020442 | 53 | 217 | 1.0 | 5.0 | 0.00 | 0.00 | 0.00 | 61 | 1011.6 |
| 20260505015940 | 54 | 223 | 1.0 | 7.0 | 0.00 | 0.00 | 0.00 | 60 | 1011.8 |
| 20260505015442 | 54 | 124 | 2.0 | 7.0 | 0.00 | 0.00 | 0.00 | 58 | 1011.8 |
| 20260505014941 | 54 | 227 | 2.0 | 7.0 | 0.00 | 0.00 | 0.00 | 54 | 1011.6 |
| 20260505014440 | 54 | 205 | 2.0 | 5.0 | 0.00 | 0.00 | 0.00 | 55 | 1011.2 |
| 20260505014202 | 54 | 215 | 2.0 | 7.0 | 0.00 | 0.00 | 0.00 | 55 | 1011.2 |
| 20260505013438 | 54 | 175 | 2.0 | 7.0 | 0.00 | 0.00 | 0.00 | 55 | 1011.1 |
| 20260505012936 | 54 | 196 | 3.0 | 7.0 | 0.00 | 0.00 | 0.00 | 56 | 1011.1 |
| 20260505012704 | 55 | 191 | 4.0 | 7.0 | 0.00 | 0.00 | 0.00 | 55 | 1011.1 |
| 20260505011935 | 56 | 178 | 4.0 | 10.0 | 0.00 | 0.00 | 0.00 | 53 | 1011.1 |
| 20260505011657 | 57 | 207 | 4.0 | 11.0 | 0.00 | 0.00 | 0.00 | 50 | 1011.1 |
| 20260505011153 | 58 | 196 | 4.0 | 11.0 | 0.00 | 0.00 | 0.00 | 47 | 1011.0 |
| 20260505010435 | 59 | 327 | 3.0 | 9.0 | 0.00 | 0.00 | 0.00 | 42 | 1010.6 |
| 20260505010152 | 60 | 196 | 3.0 | 7.0 | 0.00 | 0.00 | 0.00 | 41 | 1010.5 |
| 20260505005430 | 61 | 192 | 3.0 | 7.0 | 0.00 | 0.00 | 0.00 | 39 | 1010.3 |
| 20260505004923 | 61 | 191 | 2.0 | 6.0 | 0.00 | 0.00 | 0.00 | 38 | 1010.0 |
| 20260505004639 | 62 | 221 | 1.0 | 9.0 | 0.00 | 0.00 | 0.00 | 38 | 1009.4 |
| 20260505003911 | 62 | 273 | 1.0 | 9.0 | 0.00 | 0.00 | 0.00 | 38 | 1009.5 |
| 20260505003406 | 62 | 140 | 1.0 | 3.0 | 0.00 | 0.00 | 0.00 | 38 | 1009.3 |
| 20260505003120 | 62 | 132 | 1.0 | 3.0 | 0.00 | 0.00 | 0.00 | 39 | 1009.3 |
| 20260505002353 | 62 | 111 | 1.0 | 8.0 | 0.00 | 0.00 | 0.00 | 37 | 1009.3 |
| 20260505002115 | 62 | 87 | 2.0 | 10.0 | 0.00 | 0.00 | 0.00 | 37 | 1009.4 |
| 20260505001828 | 63 | 39 | 3.0 | 10.0 | 0.00 | 0.00 | 0.00 | 34 | 1009.5 |
| 20260505000835 | 64 | 201 | 2.0 | 7.0 | 0.00 | 0.00 | 0.00 | 34 | 1009.7 |
| 20260505000329 | 65 | 180 | 1.0 | 4.0 | 0.00 | 0.00 | 0.00 | 34 | 1009.3 |
| 20260504235824 | 65 | 180 | 0.0 | 4.0 | 0.00 | 0.00 | 0.00 | 33 | 1009.1 |
| 20260504235318 | 65 | 171 | 0.0 | 1.0 | 0.00 | 0.00 | 0.00 | 34 | 1009.1 |
| 20260504234811 | 65 | 171 | 0.0 | 1.0 | 0.00 | 0.00 | 0.00 | 34 | 1008.8 |
| 20260504234305 | 65 | 171 | 0.0 | 2.0 | 0.00 | 0.00 | 0.00 | 34 | 1008.6 |
| 20260504234022 | 65 | 171 | 0.0 | 5.0 | 0.00 | 0.00 | 0.00 | 34 | 1008.6 |
| 20260504233519 | 66 | 171 | 0.0 | 5.0 | 0.00 | 0.00 | 0.00 | 34 | 1008.6 |
| 20260504233007 | 66 | 150 | 0.0 | 1.0 | 0.00 | 0.00 | 0.00 | 33 | 1008.6 |
| 20260504232241 | 66 | 150 | 0.0 | 1.0 | 0.00 | 0.00 | 0.00 | 34 | 1008.7 |
| 20260504231735 | 66 | 150 | 0.0 | 2.0 | 0.00 | 0.00 | 0.00 | 34 | 1008.6 |
| 20260504231459 | 66 | 150 | 0.0 | 5.0 | 0.00 | 0.00 | 0.00 | 35 | 1008.6 |
| 20260504230723 | 65 | 150 | 0.0 | 5.0 | 0.00 | 0.00 | 0.00 | 37 | 1008.6 |
| 20260504230442 | 65 | 158 | 0.0 | 2.0 | 0.00 | 0.00 | 0.00 | 34 | 1008.5 |
| 20260504225710 | 64 | 158 | 0.0 | 2.0 | 0.00 | 0.00 | 0.00 | 33 | 1008.3 |
| 20260504225423 | 64 | 158 | 0.0 | 3.0 | 0.00 | 0.00 | 0.00 | 35 | 1008.5 |
| 20260504224700 | 64 | 158 | 1.0 | 3.0 | 0.00 | 0.00 | 0.00 | 37 | 1008.7 |
| 20260504224154 | 64 | 158 | 1.0 | 3.0 | 0.00 | 0.00 | 0.00 | 36 | 1008.8 |
| 20260504223647 | 64 | 158 | 2.0 | 4.0 | 0.00 | 0.00 | 0.00 | 37 | 1008.8 |
| 20260504223147 | 63 | 155 | 1.0 | 4.0 | 0.00 | 0.00 | 0.00 | 38 | 1008.8 |
| 20260504222648 | 63 | 132 | 1.0 | 7.0 | 0.00 | 0.00 | 0.00 | 39 | 1008.9 |
| 20260504222148 | 64 | 132 | 1.0 | 7.0 | 0.00 | 0.00 | 0.00 | 42 | 1008.8 |
| 20260504221646 | 64 | 140 | 2.0 | 5.0 | 0.00 | 0.00 | 0.00 | 42 | 1008.9 |
| 20260504221146 | 64 | 121 | 1.0 | 5.0 | 0.00 | 0.00 | 0.00 | 34 | 1009.1 |
| 20260504220913 | 65 | 180 | 1.0 | 5.0 | 0.00 | 0.00 | 0.00 | 34 | 1008.9 |
| 20260504220147 | 65 | 155 | 2.0 | 5.0 | 0.00 | 0.00 | 0.00 | 33 | 1008.9 |
| 20260504215645 | 66 | 273 | 2.0 | 4.0 | 0.00 | 0.00 | 0.00 | 33 | 1008.9 |
| 20260504215146 | 67 | 169 | 2.0 | 11.0 | 0.00 | 0.00 | 0.00 | 32 | 1008.6 |
| 20260504214645 | 68 | 228 | 3.0 | 11.0 | 0.00 | 0.00 | 0.00 | 29 | 1008.6 |
| 20260504214145 | 69 | 176 | 3.0 | 9.0 | 0.00 | 0.00 | 0.00 | 25 | 1008.5 |
| 20260504213907 | 70 | 161 | 2.0 | 7.0 | 0.00 | 0.00 | 0.00 | 23 | 1008.3 |
| 20260504213404 | 71 | 197 | 1.0 | 5.0 | 0.00 | 0.00 | 0.00 | 23 | 1008.2 |
| 20260504212644 | 71 | 74 | 1.0 | 3.0 | 0.00 | 0.00 | 0.00 | 21 | 1008.1 |
| 20260504212408 | 72 | 74 | 1.0 | 3.0 | 0.00 | 0.00 | 0.00 | 21 | 1008.1 |
| 20260504211645 | 72 | 155 | 1.0 | 5.0 | 0.00 | 0.00 | 0.00 | 23 | 1007.9 |
| 20260504211145 | 73 | 158 | 1.0 | 5.0 | 0.00 | 0.00 | 0.00 | 21 | 1007.9 |
| 20260504210646 | 73 | 134 | 1.0 | 3.0 | 0.00 | 0.00 | 0.00 | 22 | 1008.0 |
| 20260504210145 | 73 | 123 | 1.0 | 5.0 | 0.00 | 0.00 | 0.00 | 21 | 1008.0 |
| 20260504205644 | 73 | 61 | 1.0 | 5.0 | 0.00 | 0.00 | 0.00 | 22 | 1007.9 |
| 20260504205144 | 73 | 166 | 1.0 | 5.0 | 0.00 | 0.00 | 0.00 | 23 | 1008.0 |
| 20260504204642 | 73 | 169 | 1.0 | 5.0 | 0.00 | 0.00 | 0.00 | 26 | 1008.1 |
| 20260504204141 | 73 | 171 | 1.0 | 3.0 | 0.00 | 0.00 | 0.00 | 22 | 1008.1 |
| 20260504203640 | 73 | 174 | 1.0 | 3.0 | 0.00 | 0.00 | 0.00 | 22 | 1008.3 |
| 20260504203141 | 73 | 200 | 1.0 | 5.0 | 0.00 | 0.00 | 0.00 | 21 | 1008.5 |
| 20260504202858 | 73 | 213 | 2.0 | 7.0 | 0.00 | 0.00 | 0.00 | 19 | 1008.5 |
| 20260504202137 | 73 | 136 | 3.0 | 9.0 | 0.00 | 0.00 | 0.00 | 21 | 1008.5 |
| 20260504201902 | 72 | 139 | 4.0 | 9.0 | 0.00 | 0.00 | 0.00 | 21 | 1008.7 |
| 20260504201135 | 71 | 179 | 5.0 | 15.0 | 0.00 | 0.00 | 0.00 | 22 | 1008.7 |
| 20260504200854 | 70 | 170 | 6.0 | 15.0 | 0.00 | 0.00 | 0.00 | 20 | 1008.7 |
| 20260504200403 | 70 | 173 | 5.0 | 11.0 | 0.00 | 0.00 | 0.00 | 24 | 1008.8 |
| 20260504195634 | 69 | 117 | 5.0 | 11.0 | 0.00 | 0.00 | 0.00 | 23 | 1009.1 |
| 20260504195134 | 69 | 159 | 5.0 | 15.0 | 0.00 | 0.00 | 0.00 | 22 | 1009.1 |
| 20260504194628 | 70 | 196 | 4.0 | 15.0 | 0.00 | 0.00 | 0.00 | 21 | 1009.3 |
| 20260504194128 | 71 | 207 | 2.0 | 14.0 | 0.00 | 0.00 | 0.00 | 20 | 1009.3 |
| 20260504193849 | 70 | 109 | 1.0 | 2.0 | 0.00 | 0.00 | 0.00 | 21 | 1009.3 |
| 20260504193130 | 71 | 109 | 1.0 | 2.0 | 0.00 | 0.00 | 0.00 | 18 | 1009.3 |
| 20260504192628 | 71 | 109 | 1.0 | 2.0 | 0.00 | 0.00 | 0.00 | 18 | 1009.3 |
| 20260504192130 | 71 | 105 | 1.0 | 3.0 | 0.00 | 0.00 | 0.00 | 19 | 1009.2 |
| 20260504191630 | 71 | 105 | 1.0 | 4.0 | 0.00 | 0.00 | 0.00 | 21 | 1009.2 |
| 20260504191129 | 71 | 106 | 1.0 | 4.0 | 0.00 | 0.00 | 0.00 | 19 | 1009.3 |
| 20260504190631 | 71 | 61 | 1.0 | 4.0 | 0.00 | 0.00 | 0.00 | 20 | 1009.3 |
| 20260504190603 | 71 | 61 | 0.0 | 4.0 | 0.00 | 0.00 | 0.00 | 21 | 1009.3 |
| 20260504185625 | 71 | 263 | 0.0 | 0.0 | 0.00 | 0.00 | 0.00 | 19 | 1009.4 |
| 20260504185126 | 71 | 263 | 0.0 | 0.0 | 0.00 | 0.00 | 0.00 | 21 | 1009.5 |
| 20260504184625 | 71 | 263 | 0.0 | 1.0 | 0.00 | 0.00 | 0.00 | 20 | 1009.5 |
| 20260504184613 | 71 | 259 | 0.0 | 2.0 | 0.00 | 0.00 | 0.00 | 18 | 1009.7 |
| 20260504183625 | 71 | 259 | 1.0 | 4.0 | 0.00 | 0.00 | 0.00 | 19 | 1009.8 |
| 20260504183126 | 71 | 263 | 1.0 | 4.0 | 0.00 | 0.00 | 0.00 | 19 | 1009.9 |
| 20260504182625 | 71 | 170 | 2.0 | 5.0 | 0.00 | 0.00 | 0.00 | 20 | 1010.0 |
| 20260504182125 | 70 | 213 | 2.0 | 6.0 | 0.00 | 0.00 | 0.00 | 19 | 1010.1 |
| 20260504181621 | 70 | 268 | 2.0 | 6.0 | 0.00 | 0.00 | 0.00 | 19 | 1010.3 |
| 20260504181120 | 71 | 213 | 2.0 | 6.0 | 0.00 | 0.00 | 0.00 | 20 | 1010.3 |
| 20260504180619 | 71 | 196 | 3.0 | 7.0 | 0.00 | 0.00 | 0.00 | 20 | 1010.4 |
| 20260504180118 | 71 | 235 | 3.0 | 9.0 | 0.00 | 0.00 | 0.00 | 21 | 1010.4 |
| 20260504175618 | 70 | 209 | 3.0 | 9.0 | 0.00 | 0.00 | 0.00 | 21 | 1010.3 |
| 20260504175118 | 68 | 175 | 2.0 | 7.0 | 0.00 | 0.00 | 0.00 | 22 | 1010.4 |
| 20260504174619 | 67 | 267 | 1.0 | 7.0 | 0.00 | 0.00 | 0.00 | 21 | 1010.4 |
| 20260504174117 | 67 | 161 | 2.0 | 5.0 | 0.00 | 0.00 | 0.00 | 23 | 1010.5 |
| 20260504173617 | 67 | 186 | 3.0 | 6.0 | 0.00 | 0.00 | 0.00 | 23 | 1010.7 |
| 20260504173337 | 67 | 232 | 3.0 | 7.0 | 0.00 | 0.00 | 0.00 | 23 | 1010.9 |
| 20260504172615 | 67 | 182 | 3.0 | 7.0 | 0.00 | 0.00 | 0.00 | 23 | 1010.9 |
| 20260504172114 | 68 | 76 | 3.0 | 9.0 | 0.00 | 0.00 | 0.00 | 23 | 1010.9 |
| 20260504171614 | 69 | 168 | 3.0 | 9.0 | 0.00 | 0.00 | 0.00 | 22 | 1010.9 |
| 20260504171109 | 69 | 227 | 2.0 | 8.0 | 0.00 | 0.00 | 0.00 | 23 | 1011.0 |
| 20260504170610 | 70 | 198 | 2.0 | 6.0 | 0.00 | 0.00 | 0.00 | 24 | 1010.9 |
| 20260504170113 | 70 | 200 | 2.0 | 6.0 | 0.00 | 0.00 | 0.00 | 17 | 1011.0 |
| 20260504160106 | 68 | 289 | 4.0 | 9.0 | 0.00 | 0.00 | 0.00 | 25 | 1011.5 |
| 20260504151005 | 62 | 201 | 1.0 | 2.0 | 0.00 | 0.00 | 0.00 | 35 | 1011.7 |
| 20260504150727 | 61 | 209 | 1.0 | 3.0 | 0.00 | 0.00 | 0.00 | 36 | 1011.7 |
| 20260504140854 | 56 | 245 | 0.0 | 2.0 | 0.00 | 0.00 | 0.00 | 38 | 1011.8 |
| 20260504140610 | 56 | 245 | 0.0 | 2.0 | 0.00 | 0.00 | 0.00 | 40 | 1011.8 |
| 20260504140108 | 55 | 245 | 0.0 | 2.0 | 0.00 | 0.00 | 0.00 | 40 | 1011.7 |
| 20260504130233 | 48 | 193 | 0.0 | 3.0 | 0.00 | 0.00 | 0.00 | 56 | 1011.8 |